SCP
0 0 0 0 0 -0 0 0 0 0 0 0 0 0 0 0 1 0 0 0 0 0 0 0 0 0 0 0 0 0 0 0
0 0 0 0 0 0 0 0 0 0 0 0 0 0 0 1 1 1 1 1 1 0 0 0 0 0 0 0 0 0 0 0
0 0 0 0 0 0 0 0 0 0 0 0 0 0 0 0 0 1 1 1 1 1 0 0 0 0 0 0 0 0 0 1
-0 0 0 0 0 0 0 0 0 0 0 0 0 0 0 0 0 0 0 0 0 0 1 0 0 0 0 0 0 0 0 1
0 0 0 0 0 0 0 0 0 0 0 0 0 0 0 0 0 0 0 0 0 0 0 0 0 1 0 0 0 0 0 0
0 0 0 0 0 0 0 0 0 0 0 0 0 0 0 0 0 0 0 0 0 0 0 0 0 0 0 0 1 1 1 0
0 0 0 0 0 0 0 0 0 0 0 0 0 0 0 0 0 0 0 0 0 0 0 0 0 0 0 0 0 2 1 1
0 0 0 0 0 0 0 0 0 0 0 0 0 0 0 0 0 0 0 0 0 0 0 0 0 0 0 0 0 1 2 1
0 0 0 0 0 0 0 0 0 0 0 0 0 0 0 0 0 0 0 0 0 0 0 0 0 0 0 0 0 0 0 0
0 0 0 0 0 0 0 0 0 0 0 0 0 0 0 0 0 0 0 0 0 0 0 0 0 0 0 0 0 0 0 0
0 0 0 0 0 0 0 0 0 0 0 0 0 0 0 0 0 0 0 0 0 0 0 0 0 0 0 0 0 0 0 0
0 0 0 0 0 0 0 0 0 0 0 0 0 0 0 0 0 0 0 0 0 0 0 0 0 0 0 0 0 0 0 0
0 0 0 0 0 0 0 0 0 0 0 0 0 0 0 0 0 0 0 0 0 0 0 0 0 0 0 0 0 0 0 0
0 0 0 0 0 0 0 0 0 0 0 0 0 0 0 0 0 0 0 0 0 0 0 0 0 0 0 0 0 0 0 0
0 0 0 0 0 0 0 0 0 0 0 0 0 0 0 0 0 0 0 0 0 0 0 0 0 0 0 0 0 0 0 0
0 0 0 0 0 0 0 0 0 0 0 0 0 0 0 0 0 0 0 0 0 0 0 0 0 0 0 0 0 0 0 0
0 0 0 0 0 0 0 0 0 0 0 0 0 0 0 0 0 0 0 0 0 0 0 0 0 0 0 0 0 0 0 0
0 0 0 0 0 0 0 0 0 0 0 0 0 0 0 0 0 0 0 0 0 0 0 0 0 0 0 0 0 0 0 0
0 0 0 0 0 0 0 0 0 0 0 0 0 0 0 0 0 0 0 0 0 0 0 0 0 0 0 0 0 0 0 0
Wind_Speed_500mb
11 28 11 35 40 47 24 28 27 26 39 23 24 25 25 28 17 19 38 33 49 53 52 53 54 49 47 47 50 45 42 44
21 16 28 27 30 39 19 26 35 32 34 27 28 26 24 28 49 44 37 25 8 8 29 45 50 47 46 47 48 44 42 42
13 31 32 24 26 39 27 31 27 22 20 37 28 27 29 48 38 35 37 38 28 14 20 14 34 39 42 44 43 43 42 44
34 9 11 22 26 32 22 39 27 8 20 28 32 35 47 40 31 37 41 37 29 30 25 13 6 23 34 44 42 41 41 41
13 16 18 22 20 25 36 35 29 29 24 20 35 33 39 41 35 33 33 35 35 36 36 32 24 10 15 27 35 38 38 41
8 17 30 37 14 25 26 22 23 17 48 37 33 31 33 35 33 33 33 34 36 39 41 39 33 14 19 15 6 20 32 40
7 13 14 20 28 15 31 32 17 39 40 34 32 26 28 33 28 29 31 34 36 36 36 41 41 26 3 4 1 13 12 25
14 2 2 12 14 9 11 5 15 45 33 30 27 30 24 23 25 26 28 30 31 33 34 35 39 39 28 9 9 6 10 16
24 13 11 23 26 23 17 11 17 27 35 28 22 18 18 20 21 23 23 24 26 29 31 32 33 32 38 34 15 8 11 14
22 11 23 7 13 6 16 18 12 27 23 27 21 15 24 17 16 17 19 20 21 21 23 25 26 28 28 30 35 18 10 13
21 20 10 13 10 13 22 21 3 25 20 21 17 20 23 14 13 13 14 16 18 20 21 22 22 25 27 25 26 29 26 16
15 22 31 28 22 6 3 21 19 14 17 14 13 20 25 5 8 10 13 15 19 22 22 21 22 23 25 24 24 24 28 30
19 16 8 22 17 13 18 12 24 18 15 8 4 26 13 8 11 14 16 16 18 21 22 23 24 26 27 26 23 25 27 26
18 19 20 26 15 11 21 27 24 17 14 14 11 6 8 10 12 14 16 19 20 21 21 23 26 28 30 30 31 30 30 30
7 9 16 19 11 22 19 23 17 16 14 9 5 3 5 8 11 14 17 20 21 22 25 24 23 27 34 35 35 39 34 36
7 17 10 19 14 12 12 17 15 12 9 6 4 3 5 9 11 15 18 23 23 21 19 22 26 30 36 40 40 39 42 37
17 8 15 19 18 18 18 16 13 9 6 4 2 4 8 10 12 13 16 19 23 24 25 27 30 34 35 36 39 41 44 40
10 18 25 19 32 24 23 18 13 10 7 2 1 5 9 10 10 13 15 20 21 25 28 32 35 33 36 31 33 38 44 44
22 8 15 6 24 30 26 21 17 12 8 5 4 6 12 13 13 16 16 18 20 25 26 28 31 32 32 35 31 33 35 40
Wind_Direction_500mb
238 237 273 198 234 234 274 200 214 120 100 118 115 109 112 100 84 132 185 182 175 194 187 192 195 199 201 204 221 211 214 216
173 250 244 266 220 240 241 238 208 150 159 136 139 108 90 86 57 37 36 40 46 236 200 195 197 201 206 208 213 212 211 214
170 206 206 213 241 235 231 256 213 154 112 118 119 118 109 70 55 51 44 40 50 40 255 240 210 204 206 210 213 215 216 215
202 80 314 295 230 235 239 227 267 315 99 121 131 122 99 86 74 58 50 45 39 32 39 82 123 206 222 209 213 219 220 218
182 187 210 237 216 268 233 262 236 252 138 146 120 108 102 108 101 81 70 63 57 45 34 28 25 124 181 208 220 216 217 219
8 275 194 212 219 235 270 241 250 258 138 154 130 121 115 102 89 80 72 63 56 52 42 33 31 19 186 156 163 219 220 216
61 6 339 179 199 206 243 257 312 129 135 136 127 109 100 107 93 82 71 61 56 50 44 40 31 27 10 157 275 205 219 227
212 259 255 247 201 217 281 336 259 111 108 101 122 123 108 99 91 77 63 54 50 46 42 37 34 26 18 356 243 208 193 228
256 181 259 245 237 211 216 212 305 166 142 142 130 121 115 102 82 68 59 48 40 34 31 28 27 22 18 11 356 277 217 229
254 162 236 95 10 315 197 150 92 96 126 134 133 139 121 93 70 49 38 32 28 22 16 17 16 15 18 15 7 3 289 255
250 212 153 162 171 176 184 158 209 135 143 147 151 145 135 106 56 40 17 4 358 356 356 358 358 358 360 10 9 4 359 336
216 263 228 81 102 65 233 178 169 168 156 158 190 210 111 96 8 355 343 338 335 332 336 331 337 337 340 345 352 350 355 350
231 239 118 106 126 159 208 113 143 153 139 156 236 55 85 48 16 356 341 329 317 322 315 317 321 322 321 322 327 326 329 332
244 230 233 132 141 230 95 127 130 130 122 114 103 76 67 39 18 7 358 346 333 318 305 301 305 311 308 307 302 305 311 312
309 36 93 139 76 126 138 140 131 132 130 119 111 63 8 350 349 348 348 343 340 327 314 310 303 300 301 299 302 296 291 297
322 177 168 149 135 155 164 139 144 138 129 124 100 48 359 338 335 333 336 338 341 332 323 310 307 303 294 293 293 292 289 286
238 143 177 192 186 169 157 151 150 140 132 110 84 32 357 342 331 325 322 329 325 325 321 319 317 313 309 298 287 286 284 282
237 216 205 221 196 186 184 184 180 178 174 165 38 5 349 339 326 317 314 316 321 321 315 313 311 311 312 296 273 274 276 274
241 208 223 189 187 191 192 193 192 195 201 226 257 324 335 334 327 318 319 314 317 316 312 314 315 309 314 300 280 277 279 269
Wind_Speed_850mb
11 28 11 35 40 47 24 28 27 26 39 23 24 25 25 28 17 19 38 33 49 53 52 53 54 49 47 47 50 45 42 44
21 16 28 27 30 39 19 26 35 32 34 27 28 26 24 28 49 44 37 25 8 8 29 45 50 47 46 47 48 44 42 42
13 31 32 24 26 39 27 31 27 22 20 37 28 27 29 48 38 35 37 38 28 14 20 14 34 39 42 44 43 43 42 44
34 9 11 22 26 32 22 39 27 8 20 28 32 35 47 40 31 37 41 37 29 30 25 13 6 23 34 44 42 41 41 41
13 16 18 22 20 25 36 35 29 29 24 20 35 33 39 41 35 33 33 35 35 36 36 32 24 10 15 27 35 38 38 41
8 17 30 37 14 25 26 22 23 17 48 37 33 31 33 35 33 33 33 34 36 39 41 39 33 14 19 15 6 20 32 40
7 13 14 20 28 15 31 32 17 39 40 34 32 26 28 33 28 29 31 34 36 36 36 41 41 26 3 4 1 13 12 25
14 2 2 12 14 9 11 5 15 45 33 30 27 30 24 23 25 26 28 30 31 33 34 35 39 39 28 9 9 6 10 16
24 13 11 23 26 23 17 11 17 27 35 28 22 18 18 20 21 23 23 24 26 29 31 32 33 32 38 34 15 8 11 14
22 11 23 7 13 6 16 18 12 27 23 27 21 15 24 17 16 17 19 20 21 21 23 25 26 28 28 30 35 18 10 13
21 20 10 13 10 13 22 21 3 25 20 21 17 20 23 14 13 13 14 16 18 20 21 22 22 25 27 25 26 29 26 16
15 22 31 28 22 6 3 21 19 14 17 14 13 20 25 5 8 10 13 15 19 22 22 21 22 23 25 24 24 24 28 30
19 16 8 22 17 13 18 12 24 18 15 8 4 26 13 8 11 14 16 16 18 21 22 23 24 26 27 26 23 25 27 26
18 19 20 26 15 11 21 27 24 17 14 14 11 6 8 10 12 14 16 19 20 21 21 23 26 28 30 30 31 30 30 30
7 9 16 19 11 22 19 23 17 16 14 9 5 3 5 8 11 14 17 20 21 22 25 24 23 27 34 35 35 39 34 36
7 17 10 19 14 12 12 17 15 12 9 6 4 3 5 9 11 15 18 23 23 21 19 22 26 30 36 40 40 39 42 37
17 8 15 19 18 18 18 16 13 9 6 4 2 4 8 10 12 13 16 19 23 24 25 27 30 34 35 36 39 41 44 40
10 18 25 19 32 24 23 18 13 10 7 2 1 5 9 10 10 13 15 20 21 25 28 32 35 33 36 31 33 38 44 44
22 8 15 6 24 30 26 21 17 12 8 5 4 6 12 13 13 16 16 18 20 25 26 28 31 32 32 35 31 33 35 40
Wind_Direction_850mb
238 237 273 198 234 234 274 200 214 120 100 118 115 109 112 100 84 132 185 182 175 194 187 192 195 199 201 204 221 211 214 216
173 250 244 266 220 240 241 238 208 150 159 136 139 108 90 86 57 37 36 40 46 236 200 195 197 201 206 208 213 212 211 214
170 206 206 213 241 235 231 256 213 154 112 118 119 118 109 70 55 51 44 40 50 40 255 240 210 204 206 210 213 215 216 215
202 80 314 295 230 235 239 227 267 315 99 121 131 122 99 86 74 58 50 45 39 32 39 82 123 206 222 209 213 219 220 218
182 187 210 237 216 268 233 262 236 252 138 146 120 108 102 108 101 81 70 63 57 45 34 28 25 124 181 208 220 216 217 219
8 275 194 212 219 235 270 241 250 258 138 154 130 121 115 102 89 80 72 63 56 52 42 33 31 19 186 156 163 219 220 216
61 6 339 179 199 206 243 257 312 129 135 136 127 109 100 107 93 82 71 61 56 50 44 40 31 27 10 157 275 205 219 227
212 259 255 247 201 217 281 336 259 111 108 101 122 123 108 99 91 77 63 54 50 46 42 37 34 26 18 356 243 208 193 228
256 181 259 245 237 211 216 212 305 166 142 142 130 121 115 102 82 68 59 48 40 34 31 28 27 22 18 11 356 277 217 229
254 162 236 95 10 315 197 150 92 96 126 134 133 139 121 93 70 49 38 32 28 22 16 17 16 15 18 15 7 3 289 255
250 212 153 162 171 176 184 158 209 135 143 147 151 145 135 106 56 40 17 4 358 356 356 358 358 358 360 10 9 4 359 336
216 263 228 81 102 65 233 178 169 168 156 158 190 210 111 96 8 355 343 338 335 332 336 331 337 337 340 345 352 350 355 350
231 239 118 106 126 159 208 113 143 153 139 156 236 55 85 48 16 356 341 329 317 322 315 317 321 322 321 322 327 326 329 332
244 230 233 132 141 230 95 127 130 130 122 114 103 76 67 39 18 7 358 346 333 318 305 301 305 311 308 307 302 305 311 312
309 36 93 139 76 126 138 140 131 132 130 119 111 63 8 350 349 348 348 343 340 327 314 310 303 300 301 299 302 296 291 297
322 177 168 149 135 155 164 139 144 138 129 124 100 48 359 338 335 333 336 338 341 332 323 310 307 303 294 293 293 292 289 286
238 143 177 192 186 169 157 151 150 140 132 110 84 32 357 342 331 325 322 329 325 325 321 319 317 313 309 298 287 286 284 282
237 216 205 221 196 186 184 184 180 178 174 165 38 5 349 339 326 317 314 316 321 321 315 313 311 311 312 296 273 274 276 274
241 208 223 189 187 191 192 193 192 195 201 226 257 324 335 334 327 318 319 314 317 316 312 314 315 309 314 300 280 277 279 269